User: anonymous   Login
Location: Cueva de Ratón
(10.1013°N, 67.6606°W)
Time: 13:27:51
(UTC+00:00)
Language:

Cosmos 2084 Rocket - Orbit

View from above orbital plane
View from above orbital plane
View from above satellite
View from above satellite

Ground track
Ground track

The orbit data is extracted from the following two-line orbital elements,

1 20666U 90055D   24113.20514436  .00006988  00000-0  55865-3 0  9998
2 20666  62.7851  59.1563 0094044 137.2447 223.6016 14.97632033834619
Epoch (UTC): 22 April 2024 04:55:24
Eccentricity: 0.0094044
inclination: 62.7851°
perigee height: 509 km
apogee height: 639 km
right ascension of ascending node: 59.1563°
argument of perigee: 137.2447°
revolutions per day: 14.97632033
mean anomaly at epoch: 223.6016°
orbit number at epoch: 83461

The dashed part of the orbit path shows where the satellite is in the earth's shadow,  

DLR